GFSWCAN_700_temp_336.txt.gz
Temp
2 2 2 2 2 2 2 2 2 2 1 1 1 0 -0 -1 -1 -1 -1 -1 -1 -0 -0 0 0 0 1 1 -0 -0 2 3 2 3 5 6 6 8 8 9 10 9 9 11 10 12 13 13 13 14 15 16 16 17
2 2 2 2 2 2 1 1 1 1 1 0 -0 -1 -1 -2 -2 -2 -2 -1 -2 -2 -1 -1 -1 -0 0 0 -0 0 -0 1 1 2 3 5 5 5 6 8 8 9 10 11 11 12 12 12 12 14 14 15 15 16
1 2 2 1 1 1 1 1 0 0 -0 -0 -1 -2 -2 -2 -3 -3 -2 -2 -2 -2 -1 -1 -1 -1 -1 -0 -1 -1 -1 0 2 2 0 2 2 3 6 6 8 7 8 9 9 9 10 11 12 13 13 14 15 15
1 1 1 1 1 1 0 0 -0 -0 -1 -1 -2 -2 -3 -3 -3 -3 -3 -2 -2 -2 -2 -3 -2 -2 -2 -1 -1 -1 -0 0 0 1 -0 -0 1 2 3 4 5 7 6 7 7 8 8 9 11 12 12 13 14 14
0 0 0 0 0 -0 -0 -0 -1 -1 -1 -2 -2 -3 -3 -3 -3 -4 -3 -3 -2 -3 -3 -3 -2 -2 -1 -1 -1 -1 -1 -1 -1 -2 -2 -1 -1 -1 1 2 4 5 4 6 7 8 8 8 9 10 11 12 13 14
-0 0 -0 -0 -0 -1 -1 -1 -1 -2 -2 -2 -2 -3 -4 -4 -4 -4 -4 -3 -3 -3 -2 -2 -3 -3 -3 -2 -2 -2 -2 -2 -2 -4 -4 -3 -3 -1 -0 2 3 4 3 4 4 5 5 7 8 9 10 11 12 12
-1 -1 -1 -1 -1 -1 -1 -2 -2 -2 -2 -3 -3 -4 -4 -4 -4 -5 -4 -4 -4 -3 -3 -3 -3 -3 -3 -3 -2 -2 -2 -2 -3 -4 -3 -3 -3 -2 -1 1 2 2 2 4 5 5 6 7 8 9 9 11 11 11
-1 -1 -1 -2 -1 -2 -2 -2 -2 -3 -3 -3 -4 -5 -5 -4 -5 -5 -4 -4 -4 -4 -4 -4 -4 -3 -3 -3 -3 -3 -3 -3 -3 -4 -2 -2 -3 -4 -1 1 4 5 5 5 6 6 6 7 7 8 9 10 10 12
-2 -2 -2 -2 -2 -2 -2 -2 -3 -3 -4 -4 -3 -4 -4 -4 -4 -4 -4 -4 -4 -5 -5 -4 -4 -5 -3 -3 -3 -3 -3 -4 -4 -3 -4 -4 -4 -3 4 4 4 3 3 3 3 4 5 6 7 8 8 9 10 11
-3 -3 -3 -2 -3 -3 -3 -3 -3 -4 -5 -6 -4 -4 -5 -4 -5 -5 -4 -5 -6 -5 -5 -5 -4 -4 -3 -3 -3 -3 -3 -3 -4 -3 -4 -4 -1 3 3 2 2 2 2 2 4 5 5 6 7 7 8 9 10 11
-3 -3 -3 -3 -3 -3 -3 -4 -5 -6 -6 -5 -5 -5 -5 -5 -5 -5 -5 -5 -5 -5 -4 -4 -3 -3 -3 -3 -3 -3 -3 -3 -3 -3 -4 -3 -0 1 2 1 0 -1 0 1 1 3 5 6 6 6 8 8 9 11
-3 -3 -3 -3 -3 -3 -4 -5 -5 -5 -5 -5 -5 -5 -5 -6 -6 -6 -6 -5 -5 -5 -4 -3 -3 -3 -3 -3 -3 -3 -3 -3 -3 -4 -4 -3 2 2 2 0 -1 -1 0 1 3 3 4 5 6 6 7 8 9 10
-3 -3 -3 -4 -4 -4 -5 -5 -6 -6 -5 -5 -5 -5 -5 -6 -6 -6 -6 -4 -4 -4 -4 -3 -4 -3 -3 -3 -3 -3 -4 -4 -4 -3 -3 2 1 -1 -1 -1 -1 -1 -0 0 2 3 3 5 5 6 7 8 9 10
-3 -4 -4 -4 -5 -6 -5 -6 -5 -5 -5 -5 -5 -5 -5 -5 -5 -4 -5 -4 -4 -4 -4 -3 -4 -3 -3 -3 -3 -3 -3 -3 -3 -3 -2 -1 -1 -1 -0 -0 1 1 1 2 3 3 4 4 6 6 6 7 8 10
-4 -4 -5 -6 -5 -6 -5 -5 -5 -5 -5 -6 -6 -5 -5 -5 -4 -4 -4 -4 -4 -4 -4 -4 -4 -3 -3 -3 -3 -2 -2 -2 -2 -1 -1 -1 -1 -1 -1 0 1 2 1 2 2 2 2 3 5 6 6 7 8 9
-4 -5 -6 -6 -6 -5 -5 -5 -5 -5 -5 -5 -4 -4 -4 -4 -4 -4 -4 -4 -4 -4 -4 -4 -4 -3 -3 -2 -2 -2 -2 -1 0 -2 -2 -1 -1 -1 -0 -1 0 1 1 1 1 2 3 3 4 6 6 7 8 8
-3 -5 -4 -4 -5 -5 -5 -5 -5 -5 -4 -3 -3 -3 -4 -4 -3 -3 -4 -4 -4 -4 -4 -3 -3 -3 -2 -2 -2 -2 -1 -1 -1 -1 -1 -2 -2 -0 0 1 0 0 1 -0 -3 -0 -0 1 3 6 6 7 8 8
-2 -3 -3 -3 -4 -4 -4 -4 -4 -4 -3 -3 -3 -3 -3 -3 -3 -3 -2 -3 -3 -3 -4 -4 -4 -3 -3 -2 -2 -2 -2 -1 -1 -1 -1 -1 -1 1 1 1 1 1 0 -1 -2 -1 -1 2 5 6 6 7 7 8
-2 -2 -2 -3 -3 -3 -3 -3 -3 -3 -2 -2 -2 -2 -2 -2 -2 -2 -2 -2 -2 -3 -3 -3 -3 -3 -2 -2 -2 -2 -1 -1 -1 -1 -1 -0 0 1 1 1 1 2 1 1 1 2 3 4 4 5 7 8 8 8
-2 -2 -2 -2 -2 -2 -3 -3 -3 -3 -2 -2 -2 -2 -2 -2 -2 -2 -2 -2 -2 -2 -3 -2 -2 -2 -2 -2 -1 -1 -1 -1 -1 -1 -1 0 1 1 2 3 3 3 2 3 2 3 4 5 5 6 7 7 8 8
-1 -2 -1 -1 -2 -2 -2 -3 -2 -2 -1 -1 -1 -1 -2 -1 -1 -2 -2 -2 -2 -2 -2 -2 -2 -2 -2 -1 -1 -1 -1 -0 -1 -1 -0 -0 1 1 2 3 3 3 3 3 3 4 5 5 6 6 6 7 8 9
-1 -1 -1 -1 -1 -2 -2 -2 -2 -2 -2 -2 -2 -2 -1 -1 -2 -2 -2 -2 -2 -1 -1 -1 -1 -2 -1 -1 -1 -1 -1 -1 -0 -0 1 1 1 1 1 3 3 2 3 3 3 4 5 6 6 7 8 8 8 9
-0 -0 0 -1 -1 -1 -2 -2 -2 -2 -2 -2 -2 -2 -2 -1 -1 -1 -2 -1 -1 -1 -1 -1 -1 -1 -1 -1 -1 -1 -1 -0 -0 0 1 0 0 1 1 1 1 1 2 4 3 4 5 5 6 6 7 7 8 8
1 1 -0 -1 -1 -1 -1 -2 -2 -2 -1 -2 -2 -2 -2 -1 -1 -1 -1 -2 -1 -1 -1 -1 -1 -1 -1 -1 -0 -0 -0 -0 0 -0 -1 1 2 1 1 0 1 1 2 2 3 4 5 6 6 6 6 7 7 8
1 0 -0 -0 -1 -1 -1 -1 -1 -1 -1 -1 -1 -2 -2 -1 -1 -1 -1 -2 -0 -1 -1 -0 -1 -1 -1 -1 -1 -0 -0 -1 -0 -0 -0 1 1 2 2 3 3 4 4 4 4 4 5 5 4 6 6 6 7 7
1 -0 -0 -1 -1 -1 -1 -1 -1 -1 -2 -1 -1 -1 -1 -1 -2 -2 -1 -1 -1 -1 -1 -1 -1 -1 -1 -0 -0 -0 -1 -1 -1 -0 -0 0 1 2 2 3 3 4 5 5 5 4 4 5 5 5 5 6 6 7
0 -0 -0 -0 -0 0 -1 -1 -1 -1 -1 -1 -1 -2 -2 -1 -1 -1 -1 -1 -1 -1 -1 -1 -1 -0 -0 -1 -0 -0 0 0 -0 1 1 1 1 1 2 3 4 4 4 4 5 5 5 5 5 5 5 5 6 6
0 0 -0 -0 0 0 0 -0 -0 -1 -1 -1 -1 -2 -2 -1 -0 -1 -1 -0 -1 -1 -1 -1 -1 -0 -0 -0 -0 -0 -0 0 1 1 1 0 1 2 2 3 3 4 4 4 4 5 6 6 6 6 6 6 7 7
1 0 0 0 0 0 -0 0 0 0 0 -0 -1 -1 -1 -1 -1 -1 -1 -1 -1 -1 -1 -0 0 0 0 0 -0 0 0 1 1 1 0 1 1 2 2 2 3 3 3 4 4 4 4 5 5 5 6 6 6 6
0 0 0 1 1 0 0 0 0 1 0 0 0 0 -0 -0 -1 -1 -1 -0 -1 -0 -1 -0 0 0 0 0 0 0 -0 0 0 0 0 1 1 1 2 2 2 2 3 3 3 3 3 3 4 4 4 4 4 4
1 0 1 1 0 1 1 1 1 0 0 0 1 0 -0 -0 -1 -1 -0 -0 -0 -0 -0 -0 -0 -0 -0 -0 -0 -0 -0 -1 -0 -0 -0 -0 -0 0 0 0 0 1 1 1 1 1 1 1 1 1 2 2 2 2
0 0 0 0 1 1 1 1 0 0 1 0 -0 -1 0 0 0 -0 -0 -0 -0 -0 -0 -0 -0 -0 -0 -0 -0 -0 -0 -1 -1 -2 -1 -1 -1 -1 -1 -1 -1 -1 -1 -0 -0 0 0 0 0 0 0 0 0 1
1 0 1 1 1 0 1 1 0 0 0 0 0 0 0 0 -0 -0 -0 -0 -0 -0 -0 -1 -1 -1 -1 -1 -1 -1 -1 -1 -1 -1 -1 -1 -1 -1 -1 -2 -1 -1 -1 -1 -1 -1 -1 -1 -1 -1 -1 -1 -1 -1

GFSWCAN_700_temp_339.txt.gz
Temp
1 1 1 2 2 2 2 2 2 2 1 1 1 1 1 1 1 1 1 0 0 0 -2 -0 1 1 0 1 2 3 2 3 4 5 7 9 10 11 12 13 13 12 12 13 13 14 15 15 16 15 15 15 16 16
0 1 1 1 1 1 1 1 1 1 1 0 0 0 0 -0 -0 -0 -0 -1 -1 -0 -1 0 0 1 1 1 1 1 2 2 4 5 6 8 9 10 10 11 11 12 12 13 13 14 14 14 15 14 13 13 15 15
-0 0 0 1 1 1 1 1 1 0 0 -0 -0 -1 -1 -1 -1 -2 -2 -1 -1 -1 -1 -2 -2 1 1 1 0 -0 0 1 0 1 3 6 7 8 9 10 10 11 11 11 11 13 13 13 12 12 13 14 14 15
-0 -0 -0 -0 0 0 -0 0 -0 -0 -1 -1 -1 -1 -1 -2 -2 -2 -2 -2 -2 -2 -1 -2 -2 -1 -0 -0 0 -0 -0 -1 1 1 1 3 5 5 6 7 9 10 10 10 10 10 10 11 9 11 12 13 14 14
-1 -1 -1 -1 -1 -1 -1 -1 -1 -1 -1 -1 -2 -2 -2 -3 -3 -3 -3 -2 -2 -2 -2 -2 -2 -3 -3 -2 -1 -1 -1 -1 -2 -1 0 2 3 3 4 4 5 6 8 8 8 9 10 10 9 9 11 12 12 13
-2 -2 -2 -1 -1 -1 -1 -1 -2 -2 -2 -2 -2 -2 -3 -3 -3 -4 -3 -3 -3 -3 -2 -2 -2 -3 -4 -2 -1 -1 -1 -2 -3 -2 -0 1 1 1 2 3 4 5 5 6 6 7 8 8 8 7 9 10 11 12
-3 -3 -3 -2 -2 -2 -2 -2 -2 -2 -3 -2 -3 -3 -4 -4 -4 -4 -4 -4 -3 -3 -3 -2 -3 -4 -3 -3 -4 -4 -4 -4 -3 -2 -2 -1 -0 -1 0 1 3 4 4 5 5 5 7 6 6 6 8 10 10 11
-4 -4 -3 -3 -2 -2 -3 -2 -3 -3 -3 -3 -4 -4 -5 -4 -4 -4 -4 -4 -4 -5 -4 -3 -4 -4 -2 -3 -4 -4 -4 -4 -4 -3 -2 -2 -1 -1 -0 1 1 3 5 3 3 3 4 5 5 5 6 8 8 9
-4 -4 -3 -3 -3 -3 -3 -3 -3 -3 -5 -5 -4 -4 -4 -4 -4 -4 -4 -4 -4 -5 -5 -4 -4 -3 -3 -3 -3 -4 -4 -4 -4 -4 -3 -2 -1 -0 0 0 1 1 1 1 1 2 2 2 3 3 4 6 8 9
-4 -4 -4 -4 -3 -3 -3 -3 -4 -4 -5 -5 -5 -4 -5 -4 -5 -4 -4 -4 -5 -5 -5 -5 -4 -4 -4 -3 -3 -3 -3 -3 -3 -3 -3 -3 -2 -1 -1 -0 -1 -0 -0 -0 0 2 1 3 2 2 5 5 7 9
-4 -4 -3 -3 -3 -3 -4 -4 -5 -5 -6 -5 -5 -5 -5 -5 -5 -5 -4 -5 -5 -5 -5 -4 -4 -4 -3 -3 -3 -3 -3 -3 -3 -2 -3 -2 -0 2 3 2 1 0 0 0 0 1 0 1 3 3 5 5 6 8
-3 -3 -3 -3 -3 -3 -4 -5 -6 -5 -5 -5 -5 -5 -5 -5 -5 -5 -5 -4 -5 -4 -4 -4 -3 -3 -3 -3 -3 -3 -3 -3 -3 -3 -3 -2 2 1 1 1 1 0 -0 2 3 4 4 4 4 3 5 7 8 8
-3 -3 -4 -4 -4 -5 -5 -5 -5 -5 -5 -5 -5 -6 -6 -5 -5 -5 -5 -4 -4 -4 -3 -3 -3 -3 -2 -3 -3 -3 -4 -3 -3 -3 -2 0 0 0 0 -0 -1 -1 -1 1 3 5 6 7 6 6 6 7 8 8
-3 -4 -4 -4 -5 -5 -5 -5 -5 -5 -5 -5 -5 -5 -5 -5 -5 -5 -4 -4 -3 -3 -3 -3 -3 -3 -3 -3 -3 -3 -3 -3 -2 -3 -1 1 0 0 -0 -0 -0 1 1 2 3 3 3 5 5 5 6 6 7 8
-3 -4 -5 -5 -5 -5 -5 -5 -5 -5 -5 -5 -5 -5 -5 -4 -4 -4 -4 -4 -4 -4 -3 -3 -3 -3 -3 -3 -3 -3 -3 -2 -2 0 1 0 -0 -0 -0 0 1 1 2 2 2 2 3 3 4 5 5 7 7 8
-3 -4 -4 -5 -5 -5 -5 -5 -5 -5 -5 -4 -4 -4 -4 -4 -4 -4 -4 -4 -3 -3 -4 -4 -3 -3 -2 -2 -2 -2 -2 -2 -1 -0 -0 -0 -0 -0 0 1 0 0 2 2 1 0 -1 -0 2 4 4 5 7 7
-2 -2 -2 -3 -3 -4 -4 -4 -4 -4 -4 -3 -3 -3 -3 -3 -3 -3 -3 -3 -3 -3 -3 -3 -3 -3 -2 -2 -2 -2 -1 -1 -1 -1 -1 -1 -0 -1 0 1 1 2 2 2 1 1 -1 -1 2 3 4 6 6 8
-2 -2 -2 -3 -3 -3 -3 -3 -3 -3 -3 -3 -3 -3 -2 -2 -2 -2 -2 -2 -2 -3 -3 -4 -3 -3 -2 -1 -1 -1 -1 -1 -1 -1 -1 -1 -1 0 1 0 1 1 2 1 1 0 0 -0 1 3 4 5 6 7
-1 -2 -2 -2 -2 -2 -2 -2 -3 -2 -2 -2 -2 -2 -2 -2 -2 -2 -2 -2 -2 -2 -3 -3 -3 -2 -2 -2 -1 -1 -1 -1 -1 -1 -1 0 0 0 1 2 1 2 1 1 0 -1 -1 -1 -1 -0 2 5 6 7
-2 -1 -1 -1 -2 -2 -2 -2 -2 -2 -2 -2 -2 -1 -1 -2 -1 -1 -2 -1 -1 -2 -2 -2 -1 -2 -2 -1 -1 -1 -1 -1 -1 -1 -0 0 -0 0 0 2 2 2 2 2 1 -1 -1 -1 -1 0 3 5 6 7
-1 -1 -1 -1 -1 -2 -2 -2 -2 -2 -2 -2 -2 -1 -1 -1 -1 -2 -2 -2 -2 -2 -1 -1 -1 -1 -1 -1 -1 -1 -1 -1 -1 -0 -0 -0 -0 0 1 1 1 2 1 3 3 2 2 1 3 5 6 7 7 8
-0 -0 -0 -1 -1 -2 -2 -2 -2 -1 -1 -2 -2 -1 -1 -1 -1 -1 -2 -1 -1 -1 -1 -1 -1 -1 -1 -1 -1 -1 -0 -1 -0 -0 -0 -0 0 0 1 1 1 1 2 3 3 4 4 5 5 6 6 6 6 8
1 1 1 -1 -1 -1 -1 -1 -1 -2 -1 -1 -1 -1 -1 -1 -1 -1 -1 -2 -1 -1 -1 -1 -1 -1 -1 -1 -1 -0 0 0 -0 -0 0 0 -1 0 0 0 0 0 1 3 4 4 5 5 6 6 6 7 7 8
1 1 0 -0 -1 -1 -1 -1 -0 -1 -1 -0 -1 -1 -1 -1 -1 -1 -1 -1 -1 -1 -1 -1 -1 -1 -1 -1 -0 -0 -0 -0 0 1 1 1 0 1 -1 -0 0 0 0 2 3 4 5 6 6 7 7 7 8 8
2 1 0 0 -0 -0 -0 -1 -1 -1 -1 -1 -1 -1 -1 -1 -1 -1 -1 -1 -1 -1 -1 -0 -1 -1 -1 -0 -0 -0 0 1 0 0 1 1 0 1 1 2 1 -0 2 3 4 4 5 5 6 6 7 7 7 8
1 1 1 1 0 -0 -0 -0 -0 -0 -1 -1 -1 -1 -1 -1 -1 -1 -1 -1 -0 -1 -0 -0 -0 0 -0 -0 0 0 0 0 1 2 1 1 0 1 2 2 3 3 2 2 3 3 4 4 5 5 6 6 6 7
1 1 1 1 1 0 0 -0 -0 -0 -0 -1 -1 -1 -1 -1 -1 -1 -1 -0 -0 -0 -0 0 0 0 0 0 0 -0 0 0 1 1 1 1 2 2 3 3 3 3 3 3 4 2 3 2 4 4 4 5 5 6
1 1 1 1 1 1 0 0 0 -1 -0 -0 -0 -1 -2 -2 -1 -1 -1 -1 -1 -0 0 0 0 0 0 0 0 0 0 1 -0 -1 -0 -1 -1 1 2 2 3 3 3 4 4 4 4 4 4 4 5 4 3 4
1 1 1 1 1 1 1 0 -0 0 0 -1 -1 -1 -1 -1 -1 -1 -1 -1 -1 -0 0 0 0 0 1 -1 -0 1 1 1 1 2 1 -1 -1 -1 -1 0 1 1 1 2 3 3 2 2 3 4 4 4 4 4
1 1 1 1 1 1 1 0 1 0 1 1 0 -0 -0 -1 -1 -1 -0 -0 -0 -1 -1 -1 -0 0 0 0 -0 0 0 1 -1 -1 -1 -1 -1 -1 -1 -1 -1 -0 0 1 2 2 2 2 2 2 2 2 3 3
2 1 1 1 1 1 1 1 1 0 0 0 0 0 0 -0 -0 -1 -1 -0 -0 -1 -0 -1 -1 -1 -1 -1 -1 -1 -1 -1 -0 -1 -0 -0 -1 -1 -1 -1 -1 -1 -1 -1 -1 -1 -1 -0 1 1 1 1 1 1
1 1 1 1 1 1 1 1 1 1 0 0 0 1 0 -0 -1 -1 -0 -0 -0 -1 -1 -1 -1 -1 -1 -1 -2 -1 -2 -1 -1 -1 -1 -1 -0 -1 -1 -1 -0 -0 -1 -1 -1 -1 -1 -1 -1 -1 -1 -1 -1 -1
1 1 1 1 1 1 1 1 1 1 0 0 0 0 -0 -0 0 -0 -1 -0 -0 -1 -1 -1 -0 -1 -1 -1 -1 -1 -1 -1 -1 -1 -1 -1 -1 -1 -1 -1 -1 -1 -0 -0 -0 -1 -1 -1 -1 -1 -1 -1 -1 -1

GFSWCAN_700_temp_342.txt.gz
Temp
0 0 0 0 1 1 1 1 2 2 2 2 2 2 2 2 2 2 2 2 2 2 1 0 1 2 1 2 3 5 5 4 5 6 7 9 10 12 12 13 14 14 14 14 14 15 15 16 16 17 16 16 16 17
-0 -0 -0 -0 -0 0 1 1 1 1 1 1 1 1 1 1 1 1 1 1 1 1 0 2 2 2 2 2 2 2 3 3 5 6 7 8 9 10 11 12 13 13 14 14 14 15 14 15 15 15 14 14 15 16
-1 -1 -1 -1 -1 -0 -0 0 0 0 0 0 0 0 0 -0 -0 -0 -0 -0 -0 -0 0 -0 -1 -1 1 1 1 1 1 2 2 2 2 4 6 9 10 11 12 13 13 13 14 14 15 14 14 14 13 12 14 15
-2 -2 -2 -2 -1 -1 -1 -1 -0 -0 -1 -1 -1 -1 -1 -1 -1 -1 -1 -1 -1 -1 -0 -1 -1 -1 1 0 1 1 2 0 1 1 1 3 5 8 9 9 9 11 12 12 12 12 12 13 12 12 13 13 14 15
-3 -3 -3 -3 -2 -2 -2 -2 -2 -1 -1 -1 -1 -2 -2 -2 -2 -2 -2 -2 -2 -1 -2 -2 -1 -1 -2 -2 1 1 1 1 1 -0 1 2 3 4 5 6 7 8 9 9 11 11 12 11 11 10 11 12 13 14
-4 -4 -4 -4 -3 -3 -2 -2 -2 -2 -2 -2 -2 -2 -2 -3 -3 -3 -3 -3 -2 -2 -2 -1 -2 -2 -2 -3 -0 0 1 -0 -1 -1 0 1 2 3 4 5 5 6 6 6 8 9 9 10 9 9 9 10 11 11
-4 -4 -4 -4 -3 -3 -3 -3 -3 -3 -2 -3 -3 -3 -3 -3 -3 -3 -4 -3 -3 -3 -3 -2 -3 -3 -1 -1 -2 -3 -3 -2 -2 -1 -1 -0 1 2 2 3 3 5 6 6 6 6 7 8 7 7 7 7 9 11
-4 -4 -4 -4 -4 -4 -3 -3 -3 -4 -3 -4 -4 -4 -4 -4 -4 -4 -4 -4 -4 -4 -4 -3 -3 -3 -2 -3 -3 -3 -3 -3 -2 -1 -1 -0 0 1 1 2 2 3 5 4 5 6 7 8 7 6 6 6 7 9
-3 -3 -4 -4 -4 -3 -3 -3 -4 -4 -5 -5 -4 -4 -4 -4 -4 -4 -4 -4 -4 -4 -4 -4 -4 -3 -3 -3 -3 -3 -3 -3 -2 -2 -1 -1 -0 1 2 1 2 2 3 3 3 3 3 4 5 6 6 5 6 7
-3 -3 -3 -3 -3 -3 -3 -4 -4 -5 -5 -6 -5 -4 -4 -4 -4 -4 -4 -4 -4 -4 -5 -4 -4 -3 -3 -3 -3 -3 -2 -2 -3 -2 -2 -2 -1 1 1 1 1 1 1 1 1 1 1 2 3 3 4 5 6 8
-3 -3 -3 -3 -3 -3 -4 -5 -5 -5 -6 -5 -4 -4 -4 -4 -4 -4 -4 -4 -4 -4 -4 -4 -5 -4 -3 -3 -3 -3 -3 -3 -3 -3 -3 -2 -0 2 2 3 2 1 0 0 0 0 1 1 1 2 3 4 5 4
-3 -3 -3 -3 -3 -4 -4 -5 -5 -5 -5 -5 -5 -5 -5 -5 -4 -4 -4 -4 -4 -3 -4 -3 -4 -3 -3 -3 -3 -3 -3 -3 -3 -3 -2 -2 2 2 2 3 3 2 0 0 0 -0 0 -0 3 4 5 7 7 6
-2 -3 -4 -4 -4 -5 -5 -5 -5 -5 -5 -5 -5 -5 -5 -5 -5 -4 -4 -3 -3 -3 -3 -3 -3 -2 -2 -3 -3 -3 -3 -3 -3 -2 -1 0 1 1 1 1 1 1 0 0 1 2 3 3 4 5 5 5 6 7
-2 -3 -4 -4 -5 -5 -5 -5 -5 -4 -4 -5 -5 -5 -5 -4 -5 -4 -3 -3 -3 -3 -2 -3 -2 -3 -2 -2 -2 -3 -3 -3 -2 -2 -1 1 0 1 1 1 0 0 0 0 1 2 3 3 4 5 5 6 5 6
-2 -3 -3 -4 -4 -5 -4 -4 -4 -4 -5 -5 -5 -5 -4 -4 -3 -4 -4 -4 -3 -3 -3 -3 -2 -2 -3 -3 -3 -3 -3 -2 -2 -0 0 -0 0 -0 -0 0 0 0 -0 0 1 2 3 4 4 5 5 6 7 7
-2 -2 -2 -3 -3 -4 -4 -4 -4 -4 -4 -4 -4 -4 -4 -4 -3 -4 -4 -3 -3 -3 -3 -3 -3 -3 -3 -2 -3 -3 -3 -2 -0 -1 -0 -0 0 -0 -1 0 1 1 1 1 1 1 1 3 4 4 4 5 5 6
-1 -2 -2 -3 -3 -4 -3 -3 -3 -3 -3 -3 -3 -3 -3 -3 -3 -3 -3 -3 -3 -3 -3 -4 -3 -3 -2 -2 -2 -2 -1 -1 -1 -1 -1 -1 -1 -0 0 -0 0 1 1 1 2 2 2 2 2 3 3 3 3 4
-1 -1 -2 -3 -3 -3 -3 -3 -2 -2 -3 -2 -2 -2 -2 -2 -2 -2 -2 -2 -2 -2 -3 -4 -3 -3 -2 -2 -1 -1 -1 -1 -1 -1 -1 -1 -1 -1 -0 0 1 1 1 1 1 2 2 2 2 2 2 2 2 3
-1 -1 -2 -2 -2 -2 -2 -2 -2 -2 -2 -2 -2 -2 -2 -2 -1 -1 -2 -2 -1 -2 -2 -2 -3 -2 -1 -2 -2 -2 -1 -1 -1 -1 -0 -0 -0 -0 -0 1 1 1 1 1 2 2 1 0 0 1 1 0 2 4
-0 -1 -2 -1 -1 -1 -2 -2 -2 -2 -2 -2 -2 -1 -1 -2 -2 -2 -1 -1 -2 -2 -2 -2 -2 -1 -1 -1 -1 -1 -1 -1 -1 -0 0 -0 -0 -0 0 1 1 1 2 1 1 1 1 -1 -0 -0 -1 -1 2 4
-0 -1 -1 -1 -1 -1 -1 -1 -2 -1 -1 -2 -1 -1 -1 -1 -1 -1 -2 -1 -1 -1 -1 -1 -1 -1 -1 -1 -1 -0 -0 -1 -0 -0 0 -0 0 -0 -0 0 1 1 2 1 2 2 1 0 -1 -1 1 1 3 4
0 -0 -0 -0 -1 -1 -1 -1 -1 -0 -1 -1 -1 -1 -1 -1 -1 -1 -1 -1 -1 -1 -1 -1 -1 -1 -1 -1 -1 -1 -0 -0 -0 -0 0 0 -0 -0 -0 0 0 1 2 3 3 3 3 2 1 0 0 0 2 5
1 1 0 0 0 -0 0 0 -0 -0 -0 -1 -1 -1 -1 -1 -1 -1 -1 -1 -1 -1 -1 -1 -1 -0 -1 -0 -0 -0 -1 -0 0 0 0 0 0 0 -0 -0 0 1 2 3 4 3 4 4 5 4 5 6 6 7
2 1 1 0 -0 -0 -0 0 0 -0 -1 -1 -0 -1 -1 -1 -1 -1 -1 -1 -1 -1 -1 -0 -0 -0 -1 -1 -0 0 0 -0 0 0 0 0 0 -0 0 -0 0 1 2 3 3 5 5 5 5 6 6 7 6 7
2 1 1 0 0 0 -0 -0 -0 -0 -1 -1 -1 -1 -1 -1 -1 -1 -1 -1 -0 -0 -1 -0 -0 0 -0 -1 -0 1 0 0 0 0 0 -0 1 2 1 -0 -0 0 2 3 3 4 5 5 6 6 6 7 7 7
1 1 1 1 0 1 0 0 0 0 0 0 -1 -1 -1 -1 -1 -1 -1 -0 -0 -0 0 0 0 -0 -0 0 -0 -0 0 0 1 0 0 0 0 1 1 1 1 0 1 1 1 2 4 5 5 5 6 6 6 7
1 0 1 1 1 1 0 1 0 0 0 0 -0 -0 -1 -1 -1 -0 -1 -1 -0 -0 0 0 0 -0 -0 -0 -0 -0 -0 0 -0 -0 -0 -0 -0 0 1 2 2 2 2 2 2 1 1 1 3 4 5 5 5 6
2 1 1 1 1 1 1 1 0 0 0 0 0 -0 -1 -0 -0 -0 -0 0 -0 -0 0 -0 -0 0 -0 -1 -0 -0 -0 0 -0 -0 -0 -0 -0 -0 -0 -0 1 2 2 2 3 2 2 2 2 3 3 4 3 3
2 2 2 2 1 1 1 1 1 1 1 0 -0 0 -0 -0 0 -0 -0 -0 -0 0 0 0 0 -0 -0 -1 1 -0 -0 -0 0 -0 -0 -0 -0 -0 -0 -0 0 -0 0 1 2 2 2 2 2 2 3 2 1 1
2 2 2 2 1 1 1 1 1 1 1 0 1 1 0 0 -0 0 -0 -0 -0 0 0 0 0 -0 -1 -1 -1 -1 -1 -1 -0 -0 -1 -1 -0 -1 -0 -0 -0 -0 -0 -0 0 0 0 1 2 1 1 1 1 2
2 2 2 2 2 1 1 1 0 1 1 0 1 1 0 0 -0 -0 -0 0 0 0 0 0 0 0 0 0 -0 -1 -1 -0 0 -0 -0 -1 -0 -1 -0 -0 -0 -0 -0 -0 -0 -0 -0 0 -0 0 0 0 1 1
2 2 2 2 1 1 1 1 1 1 1 1 0 -0 0 0 -0 -0 -1 -0 -0 1 0 -0 0 0 -0 -0 -0 -0 -0 -1 -0 -0 -0 -0 0 0 0 -0 -0 -0 -0 0 -0 -0 -0 -0 -1 -1 -0 -1 -1 -1
2 2 2 2 1 1 1 1 1 0 0 -0 -0 -0 -0 -0 -0 -1 -1 -1 -1 -0 1 -0 0 0 -0 0 -1 -0 -0 -0 -1 -0 -0 -0 0 0 0 0 0 -0 -0 0 -0 -0 -1 -1 -1 -1 -0 -1 -1 -1

GFSWCAN_700_temp_345.txt.gz
Temp
-0 -0 -1 -1 -1 -0 -0 -0 0 1 1 1 2 1 1 1 1 1 1 2 3 3 2 1 3 3 3 3 4 4 5 5 5 6 6 7 8 10 10 11 12 13 13 13 14 14 14 16 16 15 15 15 16 16
-1 -1 -1 -1 -1 -1 -1 -1 -0 -0 0 1 1 1 0 0 0 1 1 2 1 2 2 2 2 2 2 2 3 4 4 3 3 5 6 6 7 9 9 10 11 12 12 13 13 14 14 15 15 14 15 15 15 16
-1 -2 -2 -3 -2 -2 -2 -1 -1 -1 -0 -0 -0 -0 -0 -0 -0 -0 0 0 1 1 1 1 0 1 1 2 2 2 3 3 3 2 4 4 5 7 8 9 10 11 12 13 13 14 14 14 15 14 14 14 14 14
-1 -2 -3 -4 -3 -3 -3 -2 -2 -2 -1 -1 -1 -1 -1 -1 -1 -1 -1 -0 -0 0 0 -1 -1 -1 -0 0 1 1 3 2 3 2 3 3 4 6 6 6 8 9 10 11 12 13 13 13 13 13 13 13 14 15
-2 -3 -4 -4 -4 -4 -3 -3 -2 -2 -2 -2 -2 -2 -2 -2 -2 -2 -2 -1 -1 -0 0 -1 -1 -1 -1 -1 -1 1 2 2 2 2 2 2 4 4 5 6 7 7 8 8 9 9 11 10 10 10 11 11 12 13
-2 -3 -4 -4 -4 -4 -4 -3 -3 -3 -3 -2 -2 -2 -2 -2 -2 -3 -2 -2 -2 -1 -1 -1 -1 -1 -1 -0 0 1 1 1 1 2 1 2 2 2 2 4 6 6 6 6 7 8 9 9 10 9 9 10 10 11
-2 -3 -3 -3 -3 -3 -3 -3 -3 -3 -3 -3 -3 -3 -3 -3 -3 -3 -3 -3 -2 -2 -2 -1 -1 -2 -2 -1 -1 -1 -2 -2 -2 -1 -1 0 1 1 2 2 7 6 5 5 6 7 8 7 8 9 8 8 8 9
-2 -2 -3 -3 -3 -3 -3 -3 -3 -3 -4 -4 -3 -3 -4 -4 -4 -4 -4 -3 -3 -3 -3 -2 -2 -3 -2 -3 -2 -2 -2 -2 -2 -2 -1 -1 -1 -0 1 4 5 6 6 5 6 7 7 7 7 8 8 7 7 7
-2 -2 -3 -3 -3 -3 -3 -3 -3 -4 -5 -5 -4 -4 -4 -4 -4 -4 -4 -4 -4 -3 -3 -3 -3 -2 -3 -3 -2 -2 -2 -2 -3 -1 -2 -2 -1 -1 1 1 2 3 5 6 5 6 7 7 7 8 8 7 8 8
-2 -2 -2 -2 -3 -3 -3 -3 -3 -4 -5 -5 -4 -4 -4 -4 -4 -4 -4 -4 -4 -3 -4 -3 -4 -4 -3 -3 -2 -2 -2 -2 -2 -1 -1 -1 1 2 2 2 1 2 2 3 3 4 5 6 7 7 7 7 7 8
-2 -2 -2 -3 -3 -3 -3 -4 -5 -5 -5 -5 -4 -4 -4 -4 -4 -4 -4 -4 -3 -3 -4 -4 -4 -4 -3 -3 -3 -3 -3 -3 -3 -2 -2 -2 1 0 1 2 2 2 1 1 2 2 4 5 6 7 7 7 6 7
-2 -3 -3 -3 -3 -4 -4 -5 -5 -5 -5 -4 -4 -4 -4 -4 -4 -4 -4 -3 -3 -3 -3 -3 -3 -3 -3 -3 -3 -3 -3 -3 -3 -2 -2 -2 1 -0 1 1 2 2 1 1 1 1 2 3 4 5 5 6 6 6
-2 -2 -3 -4 -4 -4 -4 -4 -4 -4 -4 -5 -5 -5 -5 -5 -4 -4 -3 -3 -3 -3 -3 -3 -3 -3 -2 -3 -3 -3 -3 -3 -3 -2 -1 -0 -0 0 0 0 0 1 1 1 0 0 1 1 2 2 3 4 5 6
-1 -2 -3 -3 -4 -4 -4 -4 -4 -4 -4 -5 -5 -5 -5 -4 -4 -3 -4 -3 -3 -3 -3 -3 -3 -3 -2 -2 -2 -3 -3 -3 -2 -2 0 -0 0 1 1 0 1 0 1 1 1 1 1 1 1 2 3 4 5 6
-1 -1 -2 -2 -3 -4 -4 -4 -4 -4 -4 -5 -5 -4 -4 -4 -3 -3 -3 -3 -3 -3 -3 -3 -3 -3 -3 -3 -3 -3 -3 -3 -2 -1 -0 -0 0 0 0 -0 -0 0 0 0 1 1 1 2 2 3 3 4 5 5
-1 -2 -2 -3 -3 -3 -3 -3 -3 -3 -3 -3 -4 -4 -4 -4 -3 -3 -3 -3 -3 -3 -3 -3 -3 -3 -3 -2 -3 -2 -3 -2 -1 -1 -0 -1 -1 -1 -1 -1 -0 -0 0 0 1 2 2 3 3 3 2 3 5 5
-1 -2 -3 -3 -2 -2 -2 -2 -2 -2 -2 -3 -3 -3 -3 -3 -3 -3 -3 -3 -3 -3 -3 -3 -3 -3 -2 -2 -2 -2 -2 -2 -1 -1 -0 -1 -1 -1 -1 -1 -1 -0 -0 0 0 1 1 2 2 3 3 4 3 4
-0 -2 -3 -2 -2 -2 -2 -2 -2 -2 -2 -2 -2 -2 -2 -2 -2 -2 -2 -2 -2 -2 -3 -3 -3 -3 -3 -2 -2 -1 -1 -1 -1 -1 -1 -0 -1 -1 -1 -1 -0 -0 0 1 1 1 1 2 2 3 3 3 3 4
-1 -1 -2 -1 -1 -1 -2 -2 -1 -2 -2 -2 -2 -2 -1 -2 -2 -2 -2 -2 -2 -2 -2 -2 -2 -2 -2 -1 -1 -1 -1 -1 -1 -0 -0 -0 -0 -0 -0 -0 0 0 0 1 1 1 2 2 2 1 1 1 2 3
-0 -1 -1 -1 -1 -1 -2 -2 -2 -2 -2 -2 -2 -1 -1 -2 -2 -2 -2 -2 -2 -1 -2 -2 -2 -1 -1 -1 -1 -1 -1 -0 -0 0 0 -0 -0 -0 -0 -0 -0 0 0 1 1 1 2 2 2 1 1 1 1 2
-0 0 -0 -0 -0 -1 -1 -1 -1 -1 -1 -1 -1 -1 -2 -2 -1 -1 -1 -2 -1 -2 -1 -1 -1 -1 -1 -1 -0 -0 -1 -0 0 0 -0 -0 -0 -1 0 -0 -0 0 0 2 2 3 3 2 2 1 -1 -0 1 1
0 1 1 0 -0 -1 -0 -1 -1 -1 -1 -1 -1 -1 -1 -1 -2 -1 -1 -1 -1 -1 -1 -1 -0 -0 -1 -0 -1 -1 -0 -0 -0 -0 -0 -0 -0 0 -0 -1 1 2 2 2 2 2 2 3 2 1 -1 -1 0 -1
1 1 1 0 -0 0 -1 -0 -0 -1 -0 -1 -1 -1 -1 -1 -1 -1 -1 -1 -1 -1 -1 -1 -0 -0 -0 -0 -0 0 -0 -0 -0 -0 -0 1 1 0 -0 -0 0 1 2 3 3 4 4 3 3 1 1 1 0 -0
2 1 1 1 0 0 -0 -1 -1 -1 -1 -0 -1 -1 -1 -1 -0 -0 -0 -0 -1 -0 -1 -0 -1 -0 -0 -0 -0 -0 -0 -0 -0 0 -0 1 1 0 1 1 -0 1 2 2 3 4 4 4 5 4 4 3 2 3
2 1 1 0 0 0 1 0 0 0 -1 -0 -1 -1 -1 -1 -1 -0 -1 -1 -1 -0 -0 -0 -0 -0 -0 -0 -0 -0 -0 0 -0 -1 0 -1 -0 1 1 1 0 0 1 1 2 3 4 4 4 5 5 5 5 5
1 1 1 1 1 1 1 1 1 0 0 0 -0 -0 -0 -0 -1 -0 -0 -1 -0 -0 -0 -0 -0 -0 -1 -1 -0 0 -0 0 0 0 0 -0 -0 -0 -0 1 1 1 0 1 1 1 2 4 4 5 5 5 5 6
1 1 2 2 2 1 1 1 1 1 1 0 1 0 -0 -0 -0 -0 -0 -0 -0 -0 -0 -0 -0 -0 -0 -0 0 -0 -0 -1 -1 -0 -0 -0 -0 -0 -0 -1 -0 0 1 1 0 0 1 2 1 3 4 4 4 4
2 2 2 2 2 2 1 1 1 1 1 0 1 -0 -1 -0 0 -0 -1 -0 -0 -0 -0 0 0 0 -0 -0 -0 -1 -0 -0 -1 -0 0 -0 -0 -0 -0 -1 -0 -0 -0 -0 -0 1 0 0 1 1 1 3 3 2
2 2 2 2 2 1 2 1 1 1 0 1 1 0 -0 -0 -0 0 -0 0 0 -0 -0 -0 -1 -0 0 -0 -0 0 1 0 -0 0 -0 -0 0 -0 -0 -1 -0 -0 -0 0 -0 -1 -1 -0 1 1 1 1 1 0
3 2 2 2 2 1 1 1 1 1 1 1 0 0 0 0 -0 -0 0 0 0 0 -0 0 0 -0 0 -0 -1 -1 -0 -0 -0 -1 -1 -1 -1 0 -0 0 0 -0 -1 -0 -1 -0 -0 -1 -0 -0 -0 -0 -1 -1
3 2 2 2 2 1 1 1 0 0 1 0 0 0 0 -0 -0 -1 -1 -0 0 0 0 0 0 -0 1 0 0 0 0 0 -0 -0 -0 -0 -0 -0 -0 -0 0 -1 0 -0 -1 -1 -1 -1 -0 -0 -1 -1 -1 -1
2 1 1 1 1 1 1 1 0 0 -0 -0 -0 -0 -0 -0 -1 -1 -1 -0 -0 -1 -1 -0 -1 -0 -0 -0 -0 0 -0 -1 -0 -1 -1 -0 -0 -0 0 -0 -0 -0 -0 -0 -0 -0 0 -1 -1 -1 -1 -1 -1 -1
2 2 1 1 1 1 1 1 0 -0 -1 -0 -0 -0 -0 -1 -1 -1 -1 -1 -1 0 -1 0 -1 -1 -1 -0 0 0 -0 -0 0 -1 -1 -0 -0 -0 0 0 -0 -0 -0 -1 -0 -1 -1 -1 -1 -1 -1 -1 -1 -1